Terminal Aerodrome Forecast
Issued by NWS Glasgow, MT

Home | Current Version | Previous Version | Text Only | Print | Product List | Glossary On
Versions: 1 2 3 4 5 6 7 8 9 10 11 12
000
FTUS45 KGGW 031120
TAFGGW
TAF
KGGW 031120Z 0312/0412 36013KT P6SM SCT150
     FM031800 36011KT P6SM BKN140
     FM040000 03014KT P6SM BKN130=

USA.gov is the U.S. government's official web portal to all federal, state and local government web resources and services.